KD5OH Weather Reports


Display with metric or nautical units.
time (UTC)temp
F
wind
direction
speed
MPH
gust
MPH
rain 1hr
in
rain 24hr
in
rain mn
in
humidity
%
barometer
mb
20260508120134 47 274 1.0 4.0 0.00 0.00 0.00 53 1016.3
20260508114628 45 21 4.0 7.0 0.00 0.00 0.00 56 1016.1
20260508113140 44 330 2.0 3.0 0.00 0.00 0.00 55 1016.1
20260508111636 43 334 3.0 4.0 0.00 0.00 0.00 53 1016.2
20260508110127 43 335 1.0 2.0 0.00 0.00 0.00 54 1016.1
20260508104621 42 351 0.0 2.0 0.00 0.00 0.00 54 1016.0
20260508103133 44 308 3.0 4.0 0.00 0.00 0.00 51 1016.1
20260508101641 45 92 0.0 1.0 0.00 0.00 0.00 50 1015.9
20260508100136 46 97 1.0 2.0 0.00 0.00 0.00 48 1015.9
20260508094625 46 35 0.0 0.0 0.00 0.00 0.00 48 1016.0
20260508093200 46 32 0.0 0.0 0.00 0.00 0.00 46 1016.1
20260508091630 47 337 0.0 1.0 0.00 0.00 0.00 44 1016.1
20260508090202 49 337 1.0 1.0 0.00 0.00 0.00 42 1016.2
20260508084656 50 355 0.0 1.0 0.00 0.00 0.00 42 1016.5
20260508083125 50 23 0.0 3.0 0.00 0.00 0.00 42 1016.6
20260508081638 47 21 2.0 3.0 0.00 0.00 0.00 46 1016.7
20260508080151 47 10 1.0 2.0 0.00 0.00 0.00 46 1016.7
20260508074641 48 1 0.0 1.0 0.00 0.00 0.00 44 1016.9
20260508073155 49 1 0.0 2.0 0.00 0.00 0.00 42 1016.8
20260508071645 48 7 0.0 2.0 0.00 0.00 0.00 44 1016.8
20260508070155 48 315 1.0 3.0 0.00 0.00 0.00 44 1016.8
20260508064649 50 28 0.0 0.0 0.00 0.00 0.00 40 1016.5
20260508063139 51 1 0.0 0.0 0.00 0.00 0.00 37 1016.6
20260508061635 52 265 0.0 0.0 0.00 0.00 0.00 37 1016.4
20260508060125 52 265 0.0 1.0 0.00 0.00 0.00 36 1016.4
20260508054656 55 162 0.0 0.0 0.00 0.00 0.00 32 1016.3
20260508053128 57 112 0.0 1.0 0.00 0.00 0.00 29 1016.4
20260508051639 59 112 0.0 1.0 0.00 0.00 0.00 27 1016.3
20260508050133 60 112 0.0 1.0 0.00 0.00 0.00 26 1016.4
20260508044621 58 151 1.0 2.0 0.00 0.00 0.00 28 1016.4
20260508043131 60 215 1.0 6.0 0.00 0.00 0.00 25 1016.5
20260508041625 61 77 0.0 1.0 0.00 0.00 0.00 24 1016.3
20260508040136 61 77 0.0 0.0 0.00 0.00 0.00 25 1016.2
20260508034629 61 77 0.0 0.0 0.00 0.00 0.00 24 1016.1
20260508033138 63 78 0.0 2.0 0.00 0.00 0.00 22 1015.9
20260508031650 64 106 0.0 1.0 0.00 0.00 0.00 21 1015.8
20260508030145 65 116 1.0 2.0 0.00 0.00 0.00 21 1015.6
20260508024635 65 102 1.0 2.0 0.00 0.00 0.00 21 1015.6
20260508023130 66 120 0.0 0.0 0.00 0.00 0.00 20 1015.3
20260508021701 68 120 0.0 1.0 0.00 0.00 0.00 18 1015.3
20260508020151 70 136 0.0 1.0 0.00 0.00 0.00 16 1015.3
20260508014624 74 137 0.0 1.0 0.00 0.00 0.00 14 1015.5
20260508013155 76 135 1.0 2.0 0.00 0.00 0.00 13 1015.5
20260508011628 77 130 1.0 4.0 0.00 0.00 0.00 12 1015.6
20260508010138 80 126 1.0 4.0 0.00 0.00 0.00 11 1015.3
20260508004629 79 164 3.0 7.0 0.00 0.00 0.00 11 1015.7
20260508003123 79 157 1.0 5.0 0.00 0.00 0.00 11 1015.8
20260508001634 79 230 2.0 9.0 0.00 0.00 0.00 11 1015.8
20260508000127 79 97 1.0 6.0 0.00 0.00 0.00 11 1015.5
20260507234638 80 159 2.0 8.0 0.00 0.00 0.00 11 1015.9
20260507233129 80 143 5.0 7.0 0.00 0.00 0.00 11 1015.8
20260507231623 79 140 3.0 5.0 0.00 0.00 0.00 11 1015.8
20260507230131 79 299 4.0 11.0 0.00 0.00 0.00 11 1015.7
20260507224626 80 33 1.0 21.0 0.00 0.00 0.00 11 1015.8
20260507223136 81 125 2.0 7.0 0.00 0.00 0.00 10 1016.0
20260507221630 80 241 2.0 7.0 0.00 0.00 0.00 10 1016.0
20260507220141 79 291 3.0 8.0 0.00 0.00 0.00 12 1016.1
20260507214652 78 125 1.0 8.0 0.00 0.00 0.00 10 1016.3
20260507213126 79 335 4.0 9.0 0.00 0.00 0.00 11 1016.7
20260507211658 79 46 1.0 8.0 0.00 0.00 0.00 13 1017.0
20260507210133 78 341 4.0 10.0 0.00 0.00 0.00 11 1017.3
20260507204646 78 256 6.0 8.0 0.00 0.00 0.00 12 1017.6
20260507203139 77 258 6.0 10.0 0.00 0.00 0.00 13 1017.9
20260507201635 77 279 1.0 7.0 0.00 0.00 0.00 15 1018.2
20260507200128 76 284 4.0 8.0 0.00 0.00 0.00 15 1018.3
20260507194623 75 315 2.0 8.0 0.00 0.00 0.00 17 1018.5
20260507193133 75 292 1.0 5.0 0.00 0.00 0.00 18 1018.7
20260507191626 74 77 3.0 8.0 0.00 0.00 0.00 17 1019.1
20260507190137 74 267 5.0 8.0 0.00 0.00 0.00 18 1019.2
20260507184625 73 35 2.0 7.0 0.00 0.00 0.00 17 1019.4
20260507183120 72 257 1.0 7.0 0.00 0.00 0.00 18 1019.7
20260507181633 72 270 3.0 7.0 0.00 0.00 0.00 19 1019.9
20260507180129 71 165 2.0 8.0 0.00 0.00 0.00 19 1020.1
20260507174639 70 280 2.0 15.0 0.00 0.00 0.00 19 1020.3
20260507173150 69 267 2.0 10.0 0.00 0.00 0.00 23 1020.3
20260507171623 68 252 5.0 8.0 0.00 0.00 0.00 22 1020.4
20260507170132 68 257 3.0 7.0 0.00 0.00 0.00 24 1020.6
20260507164625 67 175 6.0 9.0 0.00 0.00 0.00 26 1020.9
20260507163155 66 152 3.0 9.0 0.00 0.00 0.00 26 1021.1
20260507161624 65 135 5.0 9.0 0.00 0.00 0.00 28 1021.2
20260507160158 64 200 6.0 8.0 0.00 0.00 0.00 29 1021.4
20260507154626 63 155 6.0 10.0 0.00 0.00 0.00 31 1021.4
20260507153159 62 147 7.0 11.0 0.00 0.00 0.00 33 1021.4
20260507151626 61 144 5.0 9.0 0.00 0.00 0.00 32 1021.4
20260507150135 60 154 6.0 9.0 0.00 0.00 0.00 32 1021.5
20260507144628 59 156 6.0 10.0 0.00 0.00 0.00 33 1021.5
20260507143138 58 144 5.0 9.0 0.00 0.00 0.00 32 1021.4
20260507141630 57 148 6.0 9.0 0.00 0.00 0.00 33 1021.5
20260507140140 55 167 4.0 8.0 0.00 0.00 0.00 33 1021.4
20260507134629 54 160 3.0 5.0 0.00 0.00 0.00 35 1021.2
20260507133123 52 141 3.0 6.0 0.00 0.00 0.00 36 1021.0
20260507131654 50 102 3.0 5.0 0.00 0.00 0.00 36 1020.8
20260507130127 46 115 2.0 5.0 0.00 0.00 0.00 42 1020.8
20260507124637 42 102 1.0 2.0 0.00 0.00 0.00 46 1020.7
20260507123131 42 116 0.0 0.0 0.00 0.00 0.00 45 1020.6
20260507121643 43 125 0.0 0.0 0.00 0.00 0.00 42 1020.4